Skagway, AK

9:29 AM AKST on February 27, 2017 (GMT -0900)
Skagway

Weather History for PAGY - August, 2013

Change the Weather History Date:

Monday, August 26, 2013

  Actual Average Record
Temperature  
Mean Temperature 55 °F -  
Max Temperature 60 °F 58 °F 75 °F (1987)
Min Temperature 51 °F 47 °F 39 °F (1965)
Degree Days  
Heating Degree Days 10    
Growing Degree Days 5 (Base 50)    
Moisture  
Dew Point 52 °F    
Average Humidity 91    
Maximum Humidity 94    
Minimum Humidity 81    
Precipitation  
Precipitation 0.03 in - - ()
Sea Level Pressure  
Sea Level Pressure 29.78 in    
Wind  
Wind Speed 1 mph (NNE)    
Max Wind Speed 4 mph    
Max Gust Speed -    
Visibility 10 miles    
Events Rain    
Averages and records for this station are not official NWS values.
T = Trace of Precipitation, MM = Missing Value Source: NWS Daily Summary

Daily Weather History Graph

Daily Weather History Graph

Search for Another Location

Airport or City:

Trip Planner

Search our weather history database for the weather conditions in past years. The results will help you decide how hot, cold, wet, or windy it might be!

Date:

Astronomy

Aug. 26, 2013 Rise Set
Actual Time 5:44 AM AKDT 8:19 PM AKDT
Civil Twilight 4:59 AM AKDT 9:04 PM AKDT
Nautical Twilight 3:58 AM AKDT 10:05 PM AKDT
Astronomical Twilight 2:32 AM AKDT 11:27 PM AKDT
Moon 9:50 PM AKDT (8/26) 1:36 PM AKDT (8/26)
Length of Visible Light 16h 05m
Length of Day
14h 34m
Waning Gibbous, 65% of the Moon is Illuminated
Aug 26
Waning Gibbous
Aug 28
Last Quarter
Sep 5
New
Sep 12
First Quarter
Sep 19
Full

Hourly Weather History & Observations

Time (AKDT) Temp. Dew Point Humidity Pressure Visibility Wind Dir Wind Speed Gust Speed Precip Events Conditions
12:53 AM 55.0 °F 53.1 °F 93% 29.77 in 10.0 mi Calm Calm - N/A   Overcast
1:53 AM 54.0 °F 52.0 °F 93% 29.75 in 10.0 mi Calm Calm - 0.00 in Rain Light Rain
2:53 AM 53.1 °F 50.0 °F 89% 29.78 in 10.0 mi Calm Calm - 0.01 in Rain Light Rain
3:53 AM 54.0 °F 51.1 °F 90% 29.77 in 10.0 mi NNE 3.5 mph - 0.01 in   Overcast
4:53 AM 53.1 °F 51.1 °F 93% 29.76 in 10.0 mi NNE 3.5 mph - 0.00 in   Overcast
5:53 AM 53.1 °F 51.1 °F 93% 29.76 in 5.0 mi Calm Calm - 0.01 in Rain Light Rain
6:23 AM 51.8 °F 50.0 °F 94% 29.76 in 9.0 mi Calm Calm - 0.00 in   Overcast
6:53 AM 52.0 °F 50.0 °F 93% 29.78 in 10.0 mi WSW 3.5 mph - 0.00 in   Overcast
7:53 AM 54.0 °F 52.0 °F 93% 29.78 in 10.0 mi Calm Calm - 0.00 in   Overcast
8:07 AM 53.6 °F 51.8 °F 94% 29.78 in 10.0 mi NE 3.5 mph - N/A   Overcast
8:16 AM 55.4 °F 51.8 °F 88% 29.80 in 10.0 mi NE 3.5 mph - N/A   Overcast
8:23 AM 55.4 °F 51.8 °F 88% 29.79 in 10.0 mi Calm Calm - 0.00 in Rain Light Rain
8:53 AM 55.0 °F 53.1 °F 93% 29.79 in 10.0 mi Calm Calm - 0.00 in   Overcast
9:53 AM 53.1 °F 51.1 °F 93% 29.79 in 10.0 mi Calm Calm - N/A   Overcast
10:53 AM 54.0 °F 52.0 °F 93% 29.80 in 10.0 mi Calm Calm - 0.00 in Rain Light Rain
11:53 AM 54.0 °F 52.0 °F 93% 29.80 in 10.0 mi SSW 3.5 mph - 0.00 in   Overcast
12:53 PM 55.9 °F 54.0 °F 93% 29.80 in 10.0 mi Calm Calm - N/A   Overcast
1:53 PM 54.0 °F 51.1 °F 90% 29.80 in 10.0 mi SSW 3.5 mph - N/A   Overcast
2:53 PM 57.0 °F 54.0 °F 89% 29.79 in 10.0 mi Calm Calm - N/A   Overcast
3:53 PM 55.0 °F 52.0 °F 89% 29.79 in 10.0 mi Calm Calm - N/A   Overcast
4:53 PM 55.0 °F 52.0 °F 89% 29.77 in 10.0 mi Calm Calm - N/A   Overcast
5:53 PM 59.0 °F 53.1 °F 81% 29.77 in 10.0 mi Calm Calm - N/A   Overcast
6:53 PM 59.0 °F 54.0 °F 83% 29.76 in 10.0 mi Calm Calm - N/A   Overcast
7:53 PM 55.9 °F 53.1 °F 90% 29.76 in 10.0 mi Calm Calm - N/A   Overcast
8:53 PM 57.9 °F 54.0 °F 87% 29.76 in 10.0 mi Calm Calm - N/A   Overcast
9:53 PM 57.0 °F 55.0 °F 93% 29.76 in 10.0 mi Calm Calm - N/A   Overcast
10:53 PM 55.9 °F 54.0 °F 93% 29.75 in 10.0 mi Calm Calm - N/A   Overcast
11:53 PM 55.9 °F 53.1 °F 90% 29.76 in 10.0 mi Calm Calm - N/A   Overcast